Weather History for Sussex, NJ

Change the Weather History Date:

Monday, January 21, 2013

  Actual Average Record
Temperature  
Mean Temperature 23 °F -  
Max Temperature 28 °F 33 °F 59 °F (2006)
Min Temperature 18 °F 11 °F -20 °F (1961)
Degree Days  
Heating Degree Days 42    
Moisture  
Dew Point 14 °F    
Average Humidity 66    
Maximum Humidity 86    
Minimum Humidity 41    
Precipitation  
Precipitation 0.00 in - - ()
Sea Level Pressure  
Sea Level Pressure 29.94 in    
Wind  
Wind Speed 2 mph (SW)    
Max Wind Speed 8 mph    
Max Gust Speed -    
Visibility 8 miles    
Events Snow    
Averages and records for this station are not official NWS values.
T = Trace of Precipitation, MM = Missing Value Source: NWS Daily Summary

Daily Weather History Graph

Daily Weather History Graph

Search for Another Location

Airport:

Trip Planner

Search our weather history database for the weather conditions in past years. The results will help you decide how hot, cold, wet, or windy it might be!

Date:

Astronomy

Jan. 21, 2013 Rise Set
Actual Time 7:18 AM EST 5:01 PM EST
Civil Twilight 6:48 AM EST 5:31 PM EST
Nautical Twilight 6:14 AM EST 6:05 PM EST
Astronomical Twilight 5:42 AM EST 6:38 PM EST
Moon 12:39 PM EST 2:44 AM EST
Length of Visible Light 10h 43m
Length of Day
9h 43m
Waxing Gibbous, 75% of the Moon is Illuminated
Jan 21
Waxing Gibbous
Jan 26
Full
Feb 3
Last Quarter
Feb 10
New
Feb 17
First Quarter

Hourly Weather History & Observations

Time (EST) Temp. Windchill Dew Point Humidity Pressure Visibility Wind Dir Wind Speed Gust Speed Precip Events Conditions
12:53 AM 26.1 °F 20.5 °F 5.0 °F 41% 30.04 in 10.0 mi West 4.6 mph - N/A   Clear
1:53 AM 24.1 °F - 6.1 °F 46% 30.04 in 10.0 mi Calm Calm - N/A   Clear
2:53 AM 19.9 °F - 10.0 °F 65% 30.06 in 10.0 mi Calm Calm - N/A   Clear
3:53 AM 19.9 °F - 10.0 °F 65% 30.06 in 10.0 mi Calm Calm - N/A   Clear
4:53 AM 18.0 °F - 10.0 °F 71% 30.05 in 10.0 mi Calm Calm - N/A   Partly Cloudy
5:53 AM 21.0 °F - 10.9 °F 65% 30.05 in 10.0 mi Calm Calm - N/A   Overcast
6:53 AM 21.9 °F - 12.0 °F 66% 30.05 in 10.0 mi Calm Calm - N/A   Overcast
7:53 AM 23.0 °F - 12.0 °F 63% 30.05 in 10.0 mi Calm Calm - N/A   Overcast
8:53 AM 24.1 °F - 10.9 °F 57% 30.06 in 10.0 mi Calm Calm - N/A   Overcast
9:53 AM 26.1 °F 20.5 °F 10.9 °F 53% 30.06 in 10.0 mi South 4.6 mph - N/A   Overcast
10:53 AM 26.1 °F 21.9 °F 9.0 °F 49% 30.03 in 10.0 mi Variable 3.5 mph - N/A   Overcast
11:53 AM 27.0 °F 20.5 °F 9.0 °F 47% 29.99 in 10.0 mi Variable 5.8 mph - N/A   Overcast
12:53 PM 28.0 °F 20.8 °F 9.0 °F 45% 29.94 in 10.0 mi SW 6.9 mph - N/A   Overcast
1:53 PM 28.0 °F 20.8 °F 10.9 °F 49% 29.92 in 10.0 mi Variable 6.9 mph - N/A   Overcast
2:53 PM 28.0 °F 20.0 °F 14.0 °F 56% 29.91 in 10.0 mi South 8.1 mph - N/A   Overcast
3:53 PM 27.0 °F 21.6 °F 18.0 °F 69% 29.89 in 10.0 mi South 4.6 mph - N/A   Overcast
4:53 PM 26.1 °F 20.5 °F 17.1 °F 69% 29.88 in 10.0 mi SSW 4.6 mph - 0.00 in   Overcast
5:53 PM 26.1 °F - 18.0 °F 71% 29.88 in 10.0 mi Calm Calm - N/A   Overcast
6:53 PM 26.1 °F - 19.0 °F 75% 29.89 in 5.0 mi Calm Calm - 0.00 in   Haze
7:08 PM 26.6 °F - 19.4 °F 74% 29.87 in 2.5 mi Calm Calm - 0.00 in Snow Light Snow
7:17 PM 24.8 °F - 19.4 °F 80% 29.87 in 1.8 mi Calm Calm - 0.00 in Snow Light Snow
7:25 PM 24.8 °F 20.5 °F 19.4 °F 80% 29.87 in 2.5 mi SW 3.5 mph - 0.00 in Snow Light Snow
7:31 PM 24.8 °F - 19.4 °F 80% 29.87 in 5.0 mi Calm Calm - 0.00 in Snow Light Snow
7:53 PM 25.0 °F - 19.0 °F 78% 29.88 in 10.0 mi Calm Calm - 0.00 in   Overcast
8:53 PM 21.0 °F - 16.0 °F 81% 29.86 in 10.0 mi Calm Calm - N/A   Clear
9:31 PM 21.2 °F - 17.6 °F 86% 29.84 in 8.0 mi Calm Calm - N/A   Mostly Cloudy
9:53 PM 21.0 °F - 17.1 °F 85% 29.84 in 5.0 mi Calm Calm - 0.00 in Snow Light Snow
10:08 PM 19.4 °F - 15.8 °F 86% 29.82 in 8.0 mi Calm Calm - N/A   Partly Cloudy
10:53 PM 19.0 °F 13.9 °F 15.1 °F 85% 29.83 in 8.0 mi SSW 3.5 mph - N/A   Clear
11:53 PM 23.0 °F 18.4 °F 8.1 °F 53% 29.83 in 10.0 mi WNW 3.5 mph - N/A   Clear